CZ-6A DEB, 55511

Orbit data source: Space-Track

CZ-6A DEB, 55511 is space debris in SSO originally from a launch on Fri, 11 Nov 2022 UTC launched from the Taiyaun Space Center, China (TSC). Debris objects in space refer to the collection of defunct objects orbiting the Earth. Examples of debris include non-operational satellites, rocket bodies, and fragments generated from explosions, collisions, or faulty payload assembly.

Loading next visibility...
Identifier
55511, 2022-151XH
Orbit
SSO
Country
Flag of CNCN / PRC
Related business
Manufacturer
SAST
Mission
Spacecraft
Bus & Motor
Unknown
Mass
Unknown
Launch date (UTC)
2022-11-11 (3 years ago)
Launch vehicle
Unknown
Launch site
Taiyaun Space Center, China (TSC)
Object type
Payload
Rocket body
Debris
Shape & HBR
Unknown shape, 0.1 m
Radar Cross Section
Small (<0.1 m²)

Expand to show TLE details & history
Last TLE update: 20 hours ago

TLE from 20 hours ago
0 CZ-6A DEB
1 55511U 22151XH  25348.92906332  .00002006  00000-0  10071-2 0  9993
2 55511  98.8310 354.4540 0040646 121.0301 239.4874 14.17250095154215
Epoch: 2025-12-14T22:17Z
TLE epoch observation values (Epoch: 2025-12-14T22:17:51.070Z)
Latitude
-0.00009°
Longitude
-63.84371°
Altitude
852.551 km
Speed
7.419 km/s
True Right ascension
23h 37m 48s
True Declination
0° 00' 00"
Sunlit
Object was in daylight at epoch
Visualization orbit readout
Latitude
Unknown
Longitude
Unknown
Altitude
Unknown
Speed
Unknown
Apparent Right ascension
Unknown
Apparent Declination
Unknown
Sunlit
N/A
Visualization observer readout
Local Sidereal Time
17:04:17
Azimuth
Unknown
Elevation
Unknown
Doppler factor
Unknown
Orbital elements
Apogee altitude
861.141 km
Perigee altitude
802.53 km
Semi-major axis
7,209.973 km
Eccentricity
0.00406
Inclination
98.831°
RAAN
354.454°
Arg. of periapsis
121.0301°
True anomaly
239.08717°
Mean anomaly
239.4874°
Eccentric anomaly
239.28718°
Mean motion
3.54522 °/min
Orbital period
101.55 mins
BSTAR
0.0010071
Loading maneuver chart data...
Computing Atmospheric mass density...
Loading historical data...
Loading historical data...
Loading historical data...
Loading historical data...
Loading historical data...
Loading historical data...
Loading historical data...

Documentation

Showing up to 5 results
|